Tracking 28920 objects as of 24-May-2024
HD Live streaming from Space Station
objects crossing your sky now

STARLINK-3750

Track STARLINK-3750 now!
10-day predictions
STARLINK-3750 is classified as:


NORAD ID: 52311
Int'l Code: 2022-041BC
Perigee: 545.6 km
Apogee: 548.1 km
Inclination: 53.2 °
Period: 95.4 minutes
Semi major axis: 6917 km
RCS: Unknown
Launch date: April 21, 2022
Source: United States (US)
Launch site: AIR FORCE EASTERN TEST RANGE (AFETR)
Your satellite tracking list
Your tracking list is empty




NASA's NSSDC Master Catalog

Two Line Element Set (TLE):
1 52311U 22041BC  24144.24985750  .00001800  00000-0  13116-3 0  9990
2 52311  53.2162 151.5015 0001816  82.1158 278.0040 15.08840810116916
Source of the keplerian elements: AFSPC